,,,PA_Meas_PMT16A,,PR_Meas_QMR101_102,,RH_Meas_QMH101,,SR_Meas_QMS101,,TA_Meas_QMH101,,GenWind,,GenWind,
date,time,status,PA,status,PR,status,RH,status,SR,status,TA,status,DirAvg,status,SpdAvg,
2008-08-09, 00:00:04,VALID,1010.37,VALID,0,VALID,93.6366,VALID,0,VALID,22.3693,VALID,101,VALID,0.661719,
2008-08-09, 00:01:04,VALID,1010.31,VALID,0,VALID,93.5604,VALID,0,VALID,22.3904,VALID,109,VALID,1.1043,
2008-08-09, 00:02:04,VALID,1010.29,VALID,0,VALID,93.5375,VALID,0,VALID,22.3904,VALID,107,VALID,0.780469,
2008-08-09, 00:03:04,VALID,1010.27,VALID,0,VALID,93.507,VALID,0,VALID,22.3693,VALID,91,VALID,0.782422,
2008-08-09, 00:04:04,VALID,1010.24,VALID,0,VALID,93.4994,VALID,0,VALID,22.3498,VALID,97,VALID,0.851172,
2008-08-09, 00:05:04,VALID,1010.23,VALID,0,VALID,93.5375,VALID,0,VALID,22.3498,VALID,103,VALID,0.68125,
2008-08-09, 00:06:04,VALID,1010.23,VALID,0,VALID,93.507,VALID,0,VALID,22.3498,VALID,99,VALID,0.584375,
2008-08-09, 00:07:04,VALID,1010.23,VALID,0,VALID,93.5604,VALID,0,VALID,22.332,VALID,98,VALID,0.573828,
2008-08-09, 00:08:04,VALID,1010.24,VALID,0,VALID,93.629,VALID,0,VALID,22.3515,VALID,99,VALID,0.655859,
2008-08-09, 00:09:04,VALID,1010.23,VALID,0,VALID,93.6519,VALID,0,VALID,22.332,VALID,102,VALID,0.696094,
2008-08-09, 00:10:04,VALID,1010.25,VALID,0,VALID,93.6595,VALID,0,VALID,22.3125,VALID,111,VALID,0.970312,
2008-08-09, 00:11:04,VALID,1010.23,VALID,0,VALID,93.7129,VALID,0,VALID,22.3125,VALID,112,VALID,0.721875,
2008-08-09, 00:12:04,VALID,1010.24,VALID,0,VALID,93.7129,VALID,0,VALID,22.293,VALID,104,VALID,0.822656,
2008-08-09, 00:13:04,VALID,1010.24,VALID,0,VALID,93.7434,VALID,0,VALID,22.293,VALID,124,VALID,0.528125,
2008-08-09, 00:14:04,VALID,1010.21,VALID,0,VALID,93.8196,VALID,0,VALID,22.2719,VALID,115,VALID,0.634766,
2008-08-09, 00:15:04,VALID,1010.22,VALID,0,VALID,93.8273,VALID,0,VALID,22.2541,VALID,115,VALID,0.7,
2008-08-09, 00:16:04,VALID,1010.2,VALID,0,VALID,93.8654,VALID,0,VALID,22.2541,VALID,117,VALID,0.792578,
2008-08-09, 00:17:04,VALID,1010.2,VALID,0,VALID,93.9035,VALID,0,VALID,22.2346,VALID,109,VALID,0.599609,
2008-08-09, 00:18:04,VALID,1010.19,VALID,0,VALID,93.9417,VALID,0,VALID,22.2541,VALID,115,VALID,0.878125,
2008-08-09, 00:19:04,VALID,1010.16,VALID,0,VALID,93.9874,VALID,0,VALID,22.2151,VALID,121,VALID,0.532031,
2008-08-09, 00:20:04,VALID,1010.13,VALID,0,VALID,94.0179,VALID,0,VALID,22.2346,VALID,139,VALID,1.14336,
2008-08-09, 00:21:04,VALID,1010.13,VALID,0,VALID,94.0637,VALID,0,VALID,22.1762,VALID,126,VALID,1.00078,
2008-08-09, 00:22:04,VALID,1010.1,VALID,0,VALID,94.1247,VALID,0,VALID,22.1567,VALID,127,VALID,1.13945,
2008-08-09, 00:23:04,VALID,1010.1,VALID,0,VALID,94.1628,VALID,0,VALID,22.1177,VALID,167,VALID,0.789844,
2008-08-09, 00:24:04,VALID,1010.11,VALID,0,VALID,94.2314,VALID,0.105969,VALID,22.1161,VALID,149,VALID,0.637109,
2008-08-09, 00:25:04,VALID,1010.06,VALID,0,VALID,94.3077,VALID,0,VALID,22.1161,VALID,141,VALID,1.12109,
2008-08-09, 00:26:04,VALID,1010.06,VALID,0,VALID,94.3077,VALID,0,VALID,22.0966,VALID,152,VALID,0.540234,
2008-08-09, 00:27:04,VALID,1010.03,VALID,0,VALID,94.3458,VALID,0,VALID,22.0771,VALID,115,VALID,1.01641,
2008-08-09, 00:28:04,VALID,1010.04,VALID,0,VALID,94.3611,VALID,0,VALID,22.0771,VALID,153,VALID,1.11289,
2008-08-09, 00:29:04,VALID,1010.02,VALID,0,VALID,94.3611,VALID,0,VALID,22.0966,VALID,129,VALID,1.02266,
2008-08-09, 00:30:04,VALID,1010,VALID,0,VALID,94.3077,VALID,0,VALID,22.0966,VALID,134,VALID,1.28672,
2008-08-09, 00:31:04,VALID,1009.98,VALID,0,VALID,94.2543,VALID,0,VALID,22.1177,VALID,124,VALID,1.13633,
2008-08-09, 00:32:04,VALID,1010,VALID,0,VALID,94.1323,VALID,0,VALID,22.1372,VALID,131,VALID,1.17969,
2008-08-09, 00:33:04,VALID,1009.97,VALID,0,VALID,94.0103,VALID,0,VALID,22.1567,VALID,116,VALID,1.31211,
2008-08-09, 00:34:04,VALID,1009.97,VALID,0,VALID,93.8959,VALID,0,VALID,22.1762,VALID,137,VALID,1.13359,
2008-08-09, 00:35:04,VALID,1009.95,VALID,0,VALID,93.7968,VALID,0,VALID,22.1957,VALID,129,VALID,1.19805,
2008-08-09, 00:36:04,VALID,1009.94,VALID,0,VALID,93.69,VALID,0,VALID,22.194,VALID,123,VALID,0.710156,
2008-08-09, 00:37:04,VALID,1009.94,VALID,0,VALID,93.6214,VALID,0,VALID,22.2151,VALID,127,VALID,1.02695,
2008-08-09, 00:38:04,VALID,1009.89,VALID,0,VALID,93.5375,VALID,0,VALID,22.2346,VALID,130,VALID,1.01094,
2008-08-09, 00:39:04,VALID,1009.87,VALID,0,VALID,93.4689,VALID,0,VALID,22.2346,VALID,122,VALID,1.03008,
2008-08-09, 00:40:04,VALID,1009.87,VALID,0,VALID,93.3926,VALID,0,VALID,22.2346,VALID,155,VALID,0.835547,
2008-08-09, 00:41:04,VALID,1009.84,VALID,0,VALID,93.3697,VALID,0,VALID,22.2151,VALID,141,VALID,1.25781,
2008-08-09, 00:42:04,VALID,1009.81,VALID,0,VALID,93.3392,VALID,0,VALID,22.1745,VALID,120,VALID,1.42773,
2008-08-09, 00:43:04,VALID,1009.8,VALID,0,VALID,93.3468,VALID,0,VALID,22.194,VALID,114,VALID,0.857422,
2008-08-09, 00:44:04,VALID,1009.8,VALID,0,VALID,93.3621,VALID,0,VALID,22.1957,VALID,122,VALID,1.32969,
2008-08-09, 00:45:04,VALID,1009.8,VALID,0,VALID,93.3011,VALID,0,VALID,22.194,VALID,99,VALID,0.923047,
2008-08-09, 00:46:04,VALID,1009.78,VALID,0,VALID,93.3316,VALID,0,VALID,22.194,VALID,125,VALID,0.950391,
2008-08-09, 00:47:04,VALID,1009.78,VALID,0,VALID,93.3316,VALID,0,VALID,22.194,VALID,100,VALID,0.727344,
2008-08-09, 00:48:04,VALID,1009.79,VALID,0,VALID,93.1791,VALID,0.105969,VALID,22.194,VALID,125,VALID,1.44531,
2008-08-09, 00:49:04,VALID,1009.78,VALID,0,VALID,92.9808,VALID,0,VALID,22.194,VALID,97,VALID,1.55625,
2008-08-09, 00:50:04,VALID,1009.78,VALID,0,VALID,92.7139,VALID,0,VALID,22.2134,VALID,115,VALID,1.00391,
2008-08-09, 00:51:04,VALID,1009.74,VALID,0,VALID,92.5461,VALID,0.105969,VALID,22.2524,VALID,106,VALID,1.76211,
2008-08-09, 00:52:04,VALID,1009.77,VALID,0,VALID,92.4165,VALID,0,VALID,22.2524,VALID,98,VALID,1.75273,
2008-08-09, 00:53:04,VALID,1009.76,VALID,0,VALID,92.3174,VALID,0.105969,VALID,22.2507,VALID,122,VALID,1.63828,
2008-08-09, 00:54:04,VALID,1009.75,VALID,0,VALID,92.4241,VALID,0,VALID,22.2524,VALID,118,VALID,1.4,
2008-08-09, 00:55:04,VALID,1009.75,VALID,0,VALID,92.4928,VALID,0,VALID,22.2524,VALID,131,VALID,1.03203,
2008-08-09, 00:56:04,VALID,1009.75,VALID,0,VALID,92.5461,VALID,0,VALID,22.2329,VALID,125,VALID,0.579297,
2008-08-09, 00:57:04,VALID,1009.71,VALID,0,VALID,92.6148,VALID,0,VALID,22.2134,VALID,135,VALID,0.927344,
2008-08-09, 00:58:04,VALID,1009.67,VALID,0,VALID,92.3784,VALID,0,VALID,22.194,VALID,134,VALID,1.4707,
2008-08-09, 00:59:04,VALID,1009.64,VALID,0,VALID,92.3021,VALID,0,VALID,22.2329,VALID,151,VALID,1.13984,
2008-08-09, 01:00:04,VALID,1009.62,VALID,0,VALID,92.508,VALID,0.105969,VALID,22.2134,VALID,118,VALID,0.885156,
2008-08-09, 01:01:04,VALID,1009.62,VALID,0,VALID,92.5538,VALID,0.105969,VALID,22.194,VALID,112,VALID,0.8625,
2008-08-09, 01:02:04,VALID,1009.61,VALID,0,VALID,92.4699,VALID,0.105969,VALID,22.2134,VALID,109,VALID,1.46836,
2008-08-09, 01:03:04,VALID,1009.66,VALID,0,VALID,92.5843,VALID,0.105969,VALID,22.2134,VALID,106,VALID,0.790234,
2008-08-09, 01:04:04,VALID,1009.64,VALID,0,VALID,92.6453,VALID,0.105969,VALID,22.1923,VALID,112,VALID,1.05938,
2008-08-09, 01:05:04,VALID,1009.64,VALID,0,VALID,92.6224,VALID,0.105969,VALID,22.1728,VALID,89,VALID,0.660156,
2008-08-09, 01:06:04,VALID,1009.64,VALID,0,VALID,92.5766,VALID,0,VALID,22.194,VALID,83,VALID,1.11836,
2008-08-09, 01:07:04,VALID,1009.63,VALID,0,VALID,92.5614,VALID,0.105969,VALID,22.1923,VALID,106,VALID,1.27227,
2008-08-09, 01:08:04,VALID,1009.62,VALID,0,VALID,92.5156,VALID,0.105969,VALID,22.1923,VALID,105,VALID,1.6043,
2008-08-09, 01:09:04,VALID,1009.61,VALID,0,VALID,92.4623,VALID,0.105969,VALID,22.2134,VALID,108,VALID,0.976563,
2008-08-09, 01:10:04,VALID,1009.65,VALID,0,VALID,92.4775,VALID,0.105969,VALID,22.1923,VALID,96,VALID,1.15078,
2008-08-09, 01:11:04,VALID,1009.64,VALID,0,VALID,92.4928,VALID,0.105969,VALID,22.2329,VALID,105,VALID,1.36367,
2008-08-09, 01:12:04,VALID,1009.61,VALID,0,VALID,92.4546,VALID,0.105969,VALID,22.2329,VALID,87,VALID,0.926953,
2008-08-09, 01:13:04,VALID,1009.62,VALID,0,VALID,92.447,VALID,0.105969,VALID,22.2118,VALID,86,VALID,1.48945,
2008-08-09, 01:14:04,VALID,1009.61,VALID,0,VALID,92.4089,VALID,0.105969,VALID,22.2134,VALID,104,VALID,1.80313,
2008-08-09, 01:15:04,VALID,1009.6,VALID,0,VALID,92.6834,VALID,0,VALID,22.2134,VALID,87,VALID,0.738281,
2008-08-09, 01:16:04,VALID,1009.61,VALID,0,VALID,92.7063,VALID,0,VALID,22.2151,VALID,80,VALID,0.907812,
2008-08-09, 01:17:04,VALID,1009.62,VALID,0,VALID,92.8207,VALID,0,VALID,22.1745,VALID,90,VALID,1.06758,
2008-08-09, 01:18:04,VALID,1009.59,VALID,0,VALID,92.8359,VALID,0,VALID,22.1355,VALID,102,VALID,1.15898,
2008-08-09, 01:19:04,VALID,1009.61,VALID,0,VALID,92.9122,VALID,0,VALID,22.1762,VALID,91,VALID,1.08711,
2008-08-09, 01:20:04,VALID,1009.59,VALID,0,VALID,92.9961,VALID,0,VALID,22.1762,VALID,85,VALID,1.03555,
2008-08-09, 01:21:04,VALID,1009.58,VALID,0,VALID,93.0723,VALID,0,VALID,22.1372,VALID,97,VALID,0.981641,
2008-08-09, 01:22:04,VALID,1009.55,VALID,0,VALID,93.0342,VALID,0,VALID,22.1584,VALID,107,VALID,1.67188,
2008-08-09, 01:23:04,VALID,1009.51,VALID,0,VALID,93.0113,VALID,0,VALID,22.1567,VALID,111,VALID,1.30898,
2008-08-09, 01:24:04,VALID,1009.5,VALID,0,VALID,92.9808,VALID,0,VALID,22.1762,VALID,128,VALID,0.449219,
2008-08-09, 01:25:04,VALID,1009.49,VALID,0,VALID,92.9046,VALID,0,VALID,22.1567,VALID,142,VALID,1.72578,
2008-08-09, 01:26:04,VALID,1009.44,VALID,0,VALID,92.8969,VALID,0,VALID,22.1567,VALID,127,VALID,1.49063,
2008-08-09, 01:27:04,VALID,1009.44,VALID,0,VALID,92.9351,VALID,0,VALID,22.1567,VALID,134,VALID,1.16289,
2008-08-09, 01:28:04,VALID,1009.4,VALID,0,VALID,92.9656,VALID,0,VALID,22.1177,VALID,134,VALID,1.10469,
2008-08-09, 01:29:04,VALID,1009.38,VALID,0,VALID,92.9198,VALID,0,VALID,22.0966,VALID,120,VALID,1.525,
2008-08-09, 01:30:04,VALID,1009.37,VALID,0,VALID,93.0113,VALID,0.105969,VALID,22.1161,VALID,120,VALID,1.02813,
2008-08-09, 01:31:04,VALID,1009.36,VALID,0,VALID,93.0799,VALID,0.105969,VALID,22.0966,VALID,134,VALID,1.14023,
2008-08-09, 01:32:04,VALID,1009.33,VALID,0,VALID,93.0876,VALID,0,VALID,22.0966,VALID,144,VALID,0.891797,
2008-08-09, 01:33:04,VALID,1009.34,VALID,0,VALID,93.1257,VALID,0.105969,VALID,22.0966,VALID,117,VALID,1.19961,
2008-08-09, 01:34:04,VALID,1009.32,VALID,0,VALID,93.0647,VALID,0,VALID,22.0771,VALID,101,VALID,1.32266,
2008-08-09, 01:35:04,VALID,1009.31,VALID,0,VALID,93.0723,VALID,0.105969,VALID,22.0754,VALID,132,VALID,1.27422,
2008-08-09, 01:36:04,VALID,1009.32,VALID,0,VALID,93.0799,VALID,0,VALID,22.0966,VALID,126,VALID,1.07813,
2008-08-09, 01:37:04,VALID,1009.32,VALID,0,VALID,92.9732,VALID,0.105969,VALID,22.1355,VALID,109,VALID,1.27773,
2008-08-09, 01:38:04,VALID,1009.32,VALID,0,VALID,92.8283,VALID,0,VALID,22.1161,VALID,127,VALID,0.953906,
2008-08-09, 01:39:04,VALID,1009.32,VALID,0,VALID,92.752,VALID,0.105969,VALID,22.0949,VALID,121,VALID,1.05898,
2008-08-09, 01:40:04,VALID,1009.31,VALID,0,VALID,92.6453,VALID,0,VALID,22.1355,VALID,122,VALID,0.760156,
2008-08-09, 01:41:04,VALID,1009.29,VALID,0,VALID,92.6224,VALID,0,VALID,22.1161,VALID,127,VALID,0.896484,
2008-08-09, 01:42:04,VALID,1009.28,VALID,0,VALID,92.4928,VALID,0.105969,VALID,22.1355,VALID,122,VALID,1.09492,
2008-08-09, 01:43:04,VALID,1009.26,VALID,0,VALID,92.5614,VALID,0,VALID,22.1355,VALID,125,VALID,0.799609,
2008-08-09, 01:44:04,VALID,1009.25,VALID,0,VALID,92.3631,VALID,0,VALID,22.1144,VALID,120,VALID,0.981641,
2008-08-09, 01:45:04,VALID,1009.23,VALID,0,VALID,92.4546,VALID,0,VALID,22.1567,VALID,117,VALID,0.555078,
2008-08-09, 01:46:04,VALID,1009.19,VALID,0,VALID,92.5385,VALID,0,VALID,22.1372,VALID,123,VALID,0.622266,
2008-08-09, 01:47:04,VALID,1009.19,VALID,0,VALID,92.508,VALID,0,VALID,22.1161,VALID,140,VALID,1.25312,
2008-08-09, 01:48:04,VALID,1009.17,VALID,0,VALID,92.0886,VALID,0,VALID,22.1567,VALID,120,VALID,1.43477,
2008-08-09, 01:49:04,VALID,1009.15,VALID,0,VALID,92.1039,VALID,0,VALID,22.1762,VALID,103,VALID,1.1375,
2008-08-09, 01:50:04,VALID,1009.14,VALID,0,VALID,92.1954,VALID,0,VALID,22.1957,VALID,109,VALID,1.0582,
2008-08-09, 01:51:04,VALID,1009.14,VALID,0,VALID,92.0352,VALID,0,VALID,22.1567,VALID,102,VALID,1.49414,
2008-08-09, 01:52:04,VALID,1009.12,VALID,0,VALID,91.7988,VALID,0,VALID,22.194,VALID,105,VALID,1.38086,
2008-08-09, 01:53:04,VALID,1009.09,VALID,0,VALID,91.898,VALID,0,VALID,22.1745,VALID,103,VALID,1.12969,
2008-08-09, 01:54:04,VALID,1009.08,VALID,0,VALID,91.8064,VALID,0,VALID,22.1762,VALID,107,VALID,1.55039,
2008-08-09, 01:55:04,VALID,1009.06,VALID,0,VALID,91.9361,VALID,0,VALID,22.155,VALID,110,VALID,1.08594,
2008-08-09, 01:56:04,VALID,1009.08,VALID,0,VALID,92.1191,VALID,0,VALID,22.1567,VALID,93,VALID,0.970703,
2008-08-09, 01:57:04,VALID,1009.06,VALID,0,VALID,92.2411,VALID,0,VALID,22.1161,VALID,87,VALID,0.786328,
2008-08-09, 01:58:04,VALID,1009.04,VALID,0,VALID,92.3784,VALID,0,VALID,22.1177,VALID,103,VALID,0.935938,
2008-08-09, 01:59:04,VALID,1009.06,VALID,0,VALID,92.63,VALID,0,VALID,22.0771,VALID,88,VALID,0.711719,
2008-08-09, 02:00:04,VALID,1009.05,VALID,0,VALID,92.5766,VALID,0,VALID,22.0788,VALID,105,VALID,1.55078,
2008-08-09, 02:01:04,VALID,1009.04,VALID,0,VALID,92.6682,VALID,0,VALID,22.0788,VALID,96,VALID,0.958203,
2008-08-09, 02:02:04,VALID,1009.03,VALID,0,VALID,92.569,VALID,0,VALID,22.0593,VALID,119,VALID,1.44609,
2008-08-09, 02:03:04,VALID,1009.02,VALID,0,VALID,92.6071,VALID,0,VALID,22.0788,VALID,98,VALID,1.34766,
2008-08-09, 02:04:04,VALID,1009.01,VALID,0,VALID,92.5156,VALID,0,VALID,22.0382,VALID,106,VALID,1.22695,
2008-08-09, 02:05:04,VALID,1009,VALID,0,VALID,92.6148,VALID,0,VALID,22.0187,VALID,102,VALID,1.19102,
2008-08-09, 02:06:04,VALID,1008.99,VALID,0,VALID,92.7139,VALID,0,VALID,22.0382,VALID,93,VALID,0.831641,
2008-08-09, 02:07:04,VALID,1009,VALID,0,VALID,92.8969,VALID,0,VALID,22.0187,VALID,82,VALID,0.561719,
2008-08-09, 02:08:04,VALID,1008.97,VALID,0,VALID,92.8741,VALID,0,VALID,22.0398,VALID,106,VALID,1.05938,
2008-08-09, 02:09:04,VALID,1008.96,VALID,0,VALID,93.0342,VALID,0,VALID,21.9992,VALID,104,VALID,0.951953,
2008-08-09, 02:10:04,VALID,1008.94,VALID,0,VALID,93.0723,VALID,0,VALID,21.9797,VALID,99,VALID,0.544531,
2008-08-09, 02:11:04,VALID,1008.92,VALID,0,VALID,93.141,VALID,0,VALID,21.9797,VALID,96,VALID,0.601563,
2008-08-09, 02:12:04,VALID,1008.9,VALID,0,VALID,93.2096,VALID,0,VALID,21.9603,VALID,81,VALID,0.986719,
2008-08-09, 02:13:04,VALID,1008.91,VALID,0,VALID,93.2401,VALID,0,VALID,21.9603,VALID,84,VALID,1.15664,
2008-08-09, 02:14:04,VALID,1008.91,VALID,0,VALID,93.2782,VALID,0,VALID,21.9424,VALID,92,VALID,0.9,
2008-08-09, 02:15:04,VALID,1008.91,VALID,0,VALID,93.263,VALID,0,VALID,21.9603,VALID,96,VALID,0.921094,
2008-08-09, 02:16:04,VALID,1008.9,VALID,0,VALID,93.2782,VALID,0,VALID,21.9408,VALID,88,VALID,1.36602,
2008-08-09, 02:17:04,VALID,1008.9,VALID,0,VALID,93.2935,VALID,0,VALID,21.9408,VALID,82,VALID,1.03437,
2008-08-09, 02:18:04,VALID,1008.87,VALID,0,VALID,93.2477,VALID,0,VALID,21.9408,VALID,79,VALID,1.06289,
2008-08-09, 02:19:04,VALID,1008.86,VALID,0,VALID,93.2401,VALID,0,VALID,21.9213,VALID,74,VALID,1.15195,
2008-08-09, 02:20:04,VALID,1008.84,VALID,0,VALID,93.2553,VALID,0,VALID,21.9213,VALID,89,VALID,1.08125,
2008-08-09, 02:21:04,VALID,1008.8,VALID,0,VALID,93.2096,VALID,0,VALID,21.9424,VALID,90,VALID,1.19844,
2008-08-09, 02:22:04,VALID,1008.82,VALID,0,VALID,93.2325,VALID,0,VALID,21.9424,VALID,108,VALID,1.15742,
2008-08-09, 02:23:04,VALID,1008.79,VALID,0,VALID,93.2477,VALID,0,VALID,21.9213,VALID,99,VALID,0.948047,
2008-08-09, 02:24:04,VALID,1008.8,VALID,0,VALID,93.1943,VALID,0,VALID,21.9213,VALID,101,VALID,1.21289,
2008-08-09, 02:25:04,VALID,1008.81,VALID,0,VALID,93.1791,VALID,0,VALID,21.9213,VALID,97,VALID,1.35781,
2008-08-09, 02:26:04,VALID,1008.78,VALID,0,VALID,93.1028,VALID,0,VALID,21.9424,VALID,113,VALID,1.5375,
2008-08-09, 02:27:04,VALID,1008.81,VALID,0,VALID,93.0647,VALID,0,VALID,21.9408,VALID,113,VALID,1.4043,
2008-08-09, 02:28:04,VALID,1008.78,VALID,0,VALID,93.0418,VALID,0,VALID,21.9603,VALID,129,VALID,1.72266,
2008-08-09, 02:29:04,VALID,1008.8,VALID,0,VALID,92.9503,VALID,0,VALID,21.9797,VALID,113,VALID,1.02969,
2008-08-09, 02:30:04,VALID,1008.79,VALID,0,VALID,93.0189,VALID,0,VALID,21.9603,VALID,110,VALID,1.0168,
2008-08-09, 02:31:04,VALID,1008.76,VALID,0,VALID,92.9884,VALID,0,VALID,21.9797,VALID,106,VALID,1.22969,
2008-08-09, 02:32:04,VALID,1008.77,VALID,0,VALID,92.9732,VALID,0,VALID,21.9992,VALID,93,VALID,0.883203,
2008-08-09, 02:33:04,VALID,1008.76,VALID,0,VALID,92.8512,VALID,0,VALID,21.9603,VALID,89,VALID,1.39844,
2008-08-09, 02:34:04,VALID,1008.73,VALID,0,VALID,92.9122,VALID,0.105969,VALID,21.9797,VALID,78,VALID,0.716797,
2008-08-09, 02:35:04,VALID,1008.7,VALID,0,VALID,93.0113,VALID,0,VALID,22.0009,VALID,99,VALID,0.823438,
2008-08-09, 02:36:04,VALID,1008.7,VALID,0,VALID,92.9656,VALID,0,VALID,21.9603,VALID,88,VALID,1.07539,
2008-08-09, 02:37:04,VALID,1008.67,VALID,0,VALID,93.0113,VALID,0,VALID,21.9603,VALID,93,VALID,0.965625,
2008-08-09, 02:38:04,VALID,1008.66,VALID,0,VALID,92.9503,VALID,0,VALID,21.9814,VALID,104,VALID,0.828125,
2008-08-09, 02:39:04,VALID,1008.65,VALID,0,VALID,93.0571,VALID,0,VALID,21.9814,VALID,87,VALID,0.499219,
2008-08-09, 02:40:04,VALID,1008.65,VALID,0,VALID,93.0799,VALID,0.105969,VALID,21.9408,VALID,92,VALID,0.984766,
2008-08-09, 02:41:04,VALID,1008.63,VALID,0,VALID,93.1257,VALID,0,VALID,21.9603,VALID,94,VALID,0.955469,
2008-08-09, 02:42:04,VALID,1008.68,VALID,0,VALID,93.141,VALID,0,VALID,21.9408,VALID,77,VALID,0.765234,
2008-08-09, 02:43:04,VALID,1008.66,VALID,0,VALID,93.2172,VALID,0,VALID,21.9018,VALID,92,VALID,0.457422,
2008-08-09, 02:44:04,VALID,1008.64,VALID,0,VALID,93.2782,VALID,0,VALID,21.9213,VALID,92,VALID,0.53125,
2008-08-09, 02:45:04,VALID,1008.65,VALID,0,VALID,93.2477,VALID,0,VALID,21.9213,VALID,82,VALID,0.623828,
2008-08-09, 02:46:04,VALID,1008.64,VALID,0,VALID,93.2858,VALID,0,VALID,21.9213,VALID,69,VALID,0.678906,
2008-08-09, 02:47:04,VALID,1008.65,VALID,0,VALID,93.2858,VALID,0,VALID,21.9018,VALID,95,VALID,0.741797,
2008-08-09, 02:48:04,VALID,1008.65,VALID,0,VALID,93.324,VALID,0,VALID,21.9018,VALID,75,VALID,0.505078,
2008-08-09, 02:49:04,VALID,1008.66,VALID,0,VALID,93.3773,VALID,0,VALID,21.923,VALID,78,VALID,0.778906,
2008-08-09, 02:50:04,VALID,1008.67,VALID,0,VALID,93.3697,VALID,0,VALID,21.8629,VALID,62,VALID,0.762109,
2008-08-09, 02:51:04,VALID,1008.69,VALID,0,VALID,93.4231,VALID,0,VALID,21.8434,VALID,64,VALID,0.637891,
2008-08-09, 02:52:04,VALID,1008.66,VALID,0,VALID,93.5527,VALID,0,VALID,21.8434,VALID,84,VALID,0.625391,
2008-08-09, 02:53:04,VALID,1008.64,VALID,0,VALID,93.6671,VALID,0,VALID,21.8239,VALID,73,VALID,0.610937,
2008-08-09, 02:54:04,VALID,1008.62,VALID,0,VALID,93.7434,VALID,0,VALID,21.8045,VALID,78,VALID,0.530078,
2008-08-09, 02:55:04,VALID,1008.64,VALID,0,VALID,93.8196,VALID,0,VALID,21.8045,VALID,83,VALID,0.66875,
2008-08-09, 02:56:04,VALID,1008.59,VALID,0,VALID,93.8502,VALID,0.105969,VALID,21.785,VALID,52,VALID,0.329688,
2008-08-09, 02:57:04,VALID,1008.6,VALID,0,VALID,93.9188,VALID,0,VALID,21.785,VALID,101,VALID,1.1,
2008-08-09, 02:58:04,VALID,1008.57,VALID,0,VALID,93.8883,VALID,0,VALID,21.8045,VALID,100,VALID,0.837891,
2008-08-09, 02:59:04,VALID,1008.55,VALID,0,VALID,93.934,VALID,0,VALID,21.8045,VALID,98,VALID,0.782422,
2008-08-09, 03:00:04,VALID,1008.49,VALID,0,VALID,93.9722,VALID,0,VALID,21.8256,VALID,118,VALID,0.641797,
2008-08-09, 03:01:04,VALID,1008.5,VALID,0,VALID,94.0027,VALID,0,VALID,21.785,VALID,130,VALID,0.430078,
2008-08-09, 03:02:04,VALID,1008.5,VALID,0,VALID,94.0332,VALID,0,VALID,21.8256,VALID,133,VALID,0.512109,
2008-08-09, 03:03:04,VALID,1008.46,VALID,0,VALID,94.0179,VALID,0,VALID,21.8061,VALID,146,VALID,0.7875,
2008-08-09, 03:04:04,VALID,1008.48,VALID,0,VALID,93.9188,VALID,0,VALID,21.8061,VALID,116,VALID,1.20234,
2008-08-09, 03:05:04,VALID,1008.46,VALID,0,VALID,93.8273,VALID,0,VALID,21.8256,VALID,132,VALID,0.953125,
2008-08-09, 03:06:04,VALID,1008.46,VALID,0,VALID,93.6976,VALID,0,VALID,21.8256,VALID,138,VALID,1.03008,
2008-08-09, 03:07:04,VALID,1008.45,VALID,0,VALID,93.5985,VALID,0,VALID,21.8645,VALID,136,VALID,1.23281,
2008-08-09, 03:08:04,VALID,1008.43,VALID,0,VALID,93.4917,VALID,0,VALID,21.8434,VALID,124,VALID,0.996875,
2008-08-09, 03:09:04,VALID,1008.42,VALID,0,VALID,93.4231,VALID,0,VALID,21.884,VALID,128,VALID,0.76875,
2008-08-09, 03:10:04,VALID,1008.42,VALID,0,VALID,93.3697,VALID,0,VALID,21.884,VALID,130,VALID,0.842188,
2008-08-09, 03:11:04,VALID,1008.42,VALID,0,VALID,93.2858,VALID,0,VALID,21.9018,VALID,121,VALID,0.992578,
2008-08-09, 03:12:04,VALID,1008.4,VALID,0,VALID,93.0952,VALID,0,VALID,21.923,VALID,120,VALID,1.8918,
2008-08-09, 03:13:04,VALID,1008.4,VALID,0,VALID,92.8588,VALID,0,VALID,21.9814,VALID,130,VALID,0.901563,
2008-08-09, 03:14:04,VALID,1008.39,VALID,0,VALID,92.5614,VALID,0,VALID,21.9814,VALID,111,VALID,1.45234,
2008-08-09, 03:15:04,VALID,1008.4,VALID,0,VALID,92.5004,VALID,0,VALID,22.0398,VALID,112,VALID,1.00664,
2008-08-09, 03:16:04,VALID,1008.39,VALID,0,VALID,92.3555,VALID,0,VALID,22.0398,VALID,106,VALID,1.02422,
2008-08-09, 03:17:04,VALID,1008.4,VALID,0,VALID,92.203,VALID,0,VALID,22.0788,VALID,92,VALID,0.855469,
2008-08-09, 03:18:04,VALID,1008.44,VALID,0,VALID,91.9742,VALID,0,VALID,22.0983,VALID,104,VALID,1.69687,
2008-08-09, 03:19:04,VALID,1008.42,VALID,0,VALID,91.8293,VALID,0,VALID,22.1177,VALID,83,VALID,1.48867,
2008-08-09, 03:20:04,VALID,1008.44,VALID,0,VALID,91.9437,VALID,0,VALID,22.0983,VALID,57,VALID,1.19023,
2008-08-09, 03:21:04,VALID,1008.43,VALID,0,VALID,92.0657,VALID,0,VALID,22.0983,VALID,54,VALID,0.919141,
2008-08-09, 03:22:04,VALID,1008.46,VALID,0,VALID,92.2564,VALID,0,VALID,22.0593,VALID,66,VALID,0.626953,
2008-08-09, 03:23:04,VALID,1008.49,VALID,0,VALID,92.3555,VALID,0,VALID,22.0398,VALID,3,VALID,0.415625,
2008-08-09, 03:24:04,VALID,1008.46,VALID,0,VALID,92.5843,VALID,0,VALID,22.0204,VALID,77,VALID,0.690234,
2008-08-09, 03:25:04,VALID,1008.47,VALID,0,VALID,92.6376,VALID,0,VALID,22.0009,VALID,93,VALID,0.0433594,
2008-08-09, 03:26:04,VALID,1008.44,VALID,0,VALID,92.7749,VALID,0,VALID,21.9814,VALID,94,VALID,0.385156,
2008-08-09, 03:27:04,VALID,1008.44,VALID,0,VALID,92.9274,VALID,0,VALID,21.9603,VALID,116,VALID,0.684375,
2008-08-09, 03:28:04,VALID,1008.43,VALID,0,VALID,92.9046,VALID,0,VALID,21.9814,VALID,125,VALID,1.2457,
2008-08-09, 03:29:04,VALID,1008.42,VALID,0,VALID,92.8436,VALID,0,VALID,22.0009,VALID,134,VALID,1.00586,
2008-08-09, 03:30:04,VALID,1008.41,VALID,0,VALID,92.8664,VALID,0.105969,VALID,21.9992,VALID,126,VALID,0.682031,
2008-08-09, 03:31:04,VALID,1008.37,VALID,0,VALID,92.7902,VALID,0,VALID,21.9797,VALID,145,VALID,1.30781,
2008-08-09, 03:32:04,VALID,1008.38,VALID,0,VALID,92.7749,VALID,0,VALID,21.9992,VALID,126,VALID,0.893359,
2008-08-09, 03:33:04,VALID,1008.36,VALID,0,VALID,92.7673,VALID,0,VALID,21.9992,VALID,133,VALID,1.28242,
2008-08-09, 03:34:04,VALID,1008.35,VALID,0,VALID,92.7597,VALID,0,VALID,21.9992,VALID,132,VALID,1.44023,
2008-08-09, 03:35:04,VALID,1008.34,VALID,0,VALID,92.7368,VALID,0.105969,VALID,21.9992,VALID,135,VALID,1.12109,
2008-08-09, 03:36:04,VALID,1008.34,VALID,0,VALID,92.8436,VALID,0.105969,VALID,21.9781,VALID,127,VALID,0.682031,
2008-08-09, 03:37:04,VALID,1008.38,VALID,0,VALID,92.9274,VALID,0,VALID,21.9992,VALID,129,VALID,0.955469,
2008-08-09, 03:38:04,VALID,1008.34,VALID,0,VALID,92.9656,VALID,0.105969,VALID,21.9992,VALID,125,VALID,1.2543,
2008-08-09, 03:39:04,VALID,1008.35,VALID,0,VALID,93.0799,VALID,0.105969,VALID,21.9797,VALID,108,VALID,0.867969,
2008-08-09, 03:40:04,VALID,1008.36,VALID,0,VALID,93.1486,VALID,0,VALID,21.9992,VALID,117,VALID,0.839453,
2008-08-09, 03:41:04,VALID,1008.31,VALID,0,VALID,93.1791,VALID,0,VALID,21.9797,VALID,98,VALID,1.26523,
2008-08-09, 03:42:04,VALID,1008.31,VALID,0,VALID,93.1562,VALID,0,VALID,21.9992,VALID,93,VALID,0.921094,
2008-08-09, 03:43:04,VALID,1008.28,VALID,0,VALID,93.1943,VALID,0.105969,VALID,21.9781,VALID,100,VALID,1.11914,
2008-08-09, 03:44:04,VALID,1008.29,VALID,0,VALID,93.2477,VALID,0.105969,VALID,21.9586,VALID,100,VALID,1.12109,